User: anonymous   Login
Location: Unspecified
(0.0000°N, 0.0000°E)
Time: 19:27:56
(UTC+00:00)
Language:

PACE - Orbit

View from above orbital plane
View from above orbital plane
View from above satellite
View from above satellite

Ground track
Ground track

The orbit data is extracted from the following two-line orbital elements,

1 40022U 14033N   19340.83426300 +.00000141 +00000-0 +21088-4 0  9991
2 40022 097.9102 260.0458 0012416 215.3023 144.7373 14.88726600296753
Epoch (UTC): 06 December 2019 20:01:20
Eccentricity: 0.0012416
inclination: 97.9102°
perigee height: 593 km
apogee height: 610 km
right ascension of ascending node: 260.0458°
argument of perigee: 215.3023°
revolutions per day: 14.88726600
mean anomaly at epoch: 144.7373°
orbit number at epoch: 29675

The dashed part of the orbit path shows where the satellite is in the earth's shadow,  

DLR